• în Republica Moldova
  • Lista ţărilor
  • Pe 7 zile
  • Temperatura apei
  • Hartă satelitară
  • Meteo pe hartă
  • Widget-uri
  • user-avatar
    Intrare

    Meteo pe oră la Solden

    Astăzi, 22 Ianuarie, Duminică

    Timp Temperatura Precipitaţii Vânt Presiune Umiditate
    00:00 -16°C° 0 mm 1 m/s 578 mmHg 82%
    01:00 -16°C° 0 mm 1 m/s 579 mmHg 79%
    02:00 -16°C° 0 mm 1 m/s 578 mmHg 78%
    03:00 -18°C° 0 mm 2 m/s 578 mmHg 76%
    04:00 -18°C° 0 mm 2 m/s 578 mmHg 75%
    05:00 -18°C° 0 mm 2 m/s 578 mmHg 74%
    06:00 -18°C° 0 mm 2 m/s 578 mmHg 73%
    07:00 -18°C° 0 mm 2 m/s 578 mmHg 73%
    08:00 -16°C° 0 mm 2 m/s 579 mmHg 73%
    09:00 -13°C° 0 mm 2 m/s 581 mmHg 73%
    10:00 -10°C° 0 mm 2 m/s 582 mmHg 73%
    11:00 -7°C° 0 mm 1 m/s 583 mmHg 73%
    12:00 -6°C° 0 mm 1 m/s 583 mmHg 74%
    13:00 -4°C° 0 mm 1 m/s 583 mmHg 75%
    14:00 -6°C° 0 mm 1 m/s 583 mmHg 77%
    15:00 -7°C° 0 mm 1 m/s 582 mmHg 80%
    16:00 -8°C° 0 mm 1 m/s 581 mmHg 82%
    17:00 -11°C° 0 mm 1 m/s 580 mmHg 83%
    18:00 -13°C° 0 mm 1 m/s 578 mmHg 83%
    19:00 -16°C° 0 mm 1 m/s 577 mmHg 83%
    20:00 -16°C° 0 mm 1 m/s 577 mmHg 83%
    21:00 -16°C° 0 mm 1 m/s 577 mmHg 82%
    22:00 -16°C° 0 mm 1 m/s 577 mmHg 82%
    23:00 -16°C° 0 mm 1 m/s 577 mmHg 81%

    Mâine, 23 Ianuarie, Luni

    Timp Temperatura Precipitaţii Vânt Presiune Umiditate
    00:00 -16°C° 0 mm 1 m/s 576 mmHg 80%
    01:00 -16°C° 0 mm 1 m/s 576 mmHg 80%
    02:00 -16°C° 0 mm 1 m/s 576 mmHg 79%
    03:00 -17°C° 0 mm 1 m/s 576 mmHg 78%
    04:00 -17°C° 0 mm 1 m/s 575 mmHg 77%
    05:00 -17°C° 0 mm 1 m/s 575 mmHg 77%
    06:00 -17°C° 0 mm 1 m/s 575 mmHg 76%
    07:00 -17°C° 0 mm 1 m/s 574 mmHg 76%
    08:00 -15°C° 0 mm 1 m/s 576 mmHg 74%
    09:00 -12°C° 0 mm 1 m/s 578 mmHg 72%
    10:00 -9°C° 0 mm 1 m/s 580 mmHg 71%
    11:00 -7°C° 0 mm 1 m/s 580 mmHg 72%
    12:00 -5°C° 0 mm 0 m/s 580 mmHg 73%
    13:00 -4°C° 0 mm 0 m/s 581 mmHg 74%
    14:00 -6°C° 0 mm 0 m/s 580 mmHg 77%
    15:00 -8°C° 0 mm 0 m/s 578 mmHg 80%
    16:00 -9°C° 0 mm 0 m/s 577 mmHg 82%
    17:00 -13°C° 0 mm 0 m/s 575 mmHg 84%
    18:00 -16°C° 0 mm 0 m/s 573 mmHg 85%
    19:00 -19°C° 0 mm 0 m/s 571 mmHg 87%
    20:00 -19°C° 0 mm 1 m/s 571 mmHg 86%
    21:00 -19°C° 0 mm 1 m/s 571 mmHg 85%
    22:00 -19°C° 0 mm 1 m/s 572 mmHg 84%
    23:00 -18°C° 0 mm 1 m/s 572 mmHg 83%

    Poimâine, 24 Ianuarie, Marţi

    Timp Temperatura Precipitaţii Vânt Presiune Umiditate
    00:00 -18°C° 0 mm 1 m/s 572 mmHg 82%
    01:00 -18°C° 0 mm 1 m/s 572 mmHg 81%
    02:00 -18°C° 0 mm 1 m/s 572 mmHg 79%
    03:00 -18°C° 0 mm 1 m/s 572 mmHg 77%
    04:00 -20°C° 0 mm 2 m/s 572 mmHg 76%
    05:00 -20°C° 0 mm 2 m/s 572 mmHg 75%
    06:00 -20°C° 0 mm 2 m/s 572 mmHg 74%
    07:00 -21°C° 0 mm 2 m/s 572 mmHg 74%
    08:00 -15°C° 0 mm 1 m/s 574 mmHg 74%
    09:00 -12°C° 0 mm 1 m/s 576 mmHg 74%
    10:00 -8°C° 0 mm 1 m/s 579 mmHg 74%
    11:00 -7°C° 0 mm 1 m/s 579 mmHg 74%
    12:00 -5°C° 0 mm 0 m/s 580 mmHg 73%
    13:00 -4°C° 0 mm 0 m/s 580 mmHg 73%
    14:00 -5°C° 0 mm 0 m/s 580 mmHg 77%
    15:00 -6°C° 0 mm 0 m/s 579 mmHg 80%
    16:00 -8°C° 0 mm 0 m/s 578 mmHg 83%
    17:00 -11°C° 0 mm 1 m/s 577 mmHg 85%
    18:00 -14°C° 0 mm 1 m/s 575 mmHg 86%
    19:00 -17°C° 0 mm 1 m/s 574 mmHg 88%
    20:00 -17°C° 0 mm 1 m/s 574 mmHg 87%
    21:00 -18°C° 0 mm 1 m/s 574 mmHg 87%
    22:00 -18°C° 0 mm 1 m/s 574 mmHg 86%
    23:00 -18°C° 0 mm 1 m/s 574 mmHg 84%

    25 Ianuarie, Miercuri

    Timp Temperatura Precipitaţii Vânt Presiune Umiditate
    00:00 -18°C° 0 mm 1 m/s 574 mmHg 81%
    01:00 -19°C° 0 mm 1 m/s 573 mmHg 79%
    02:00 -19°C° 0 mm 1 m/s 573 mmHg 76%
    03:00 -19°C° 0 mm 1 m/s 573 mmHg 73%
    04:00 -19°C° 0 mm 1 m/s 573 mmHg 70%
    05:00 -19°C° 0 mm 1 m/s 574 mmHg 69%
    06:00 -19°C° 0 mm 1 m/s 574 mmHg 67%
    07:00 -19°C° 0 mm 1 m/s 574 mmHg 66%
    08:00 -15°C° 0 mm 1 m/s 577 mmHg 67%
    09:00 -11°C° 0 mm 1 m/s 579 mmHg 68%
    10:00 -7°C° 0 mm 1 m/s 582 mmHg 69%
    11:00 -6°C° 0 mm 1 m/s 582 mmHg 70%
    12:00 -3°C° 0 mm 1 m/s 583 mmHg 71%
    13:00 -3°C° 0 mm 0 m/s 584 mmHg 73%
    14:00 -4°C° 0 mm 0 m/s 583 mmHg 74%
    15:00 -6°C° 0 mm 0 m/s 582 mmHg 76%
    16:00 -7°C° 0 mm 0 m/s 581 mmHg 78%
    17:00 -10°C° 0 mm 0 m/s 580 mmHg 78%
    18:00 -12°C° 0 mm 1 m/s 579 mmHg 77%
    19:00 -15°C° 0 mm 1 m/s 577 mmHg 77%
    20:00 -14°C° 0 mm 1 m/s 578 mmHg 75%
    21:00 -14°C° 0 mm 1 m/s 578 mmHg 72%
    22:00 -14°C° 0 mm 1 m/s 579 mmHg 70%
    23:00 -14°C° 0 mm 1 m/s 579 mmHg 69%

    26 Ianuarie, Joi

    Timp Temperatura Precipitaţii Vânt Presiune Umiditate
    00:00 -14°C° 0 mm 1 m/s 579 mmHg 68%
    01:00 -14°C° 0 mm 1 m/s 579 mmHg 67%
    02:00 -14°C° 0 mm 1 m/s 579 mmHg 66%
    03:00 -14°C° 0 mm 1 m/s 579 mmHg 66%
    04:00 -15°C° 0 mm 1 m/s 579 mmHg 65%
    05:00 -14°C° 0 mm 1 m/s 579 mmHg 64%
    06:00 -14°C° 0 mm 1 m/s 579 mmHg 64%
    07:00 -14°C° 0 mm 1 m/s 579 mmHg 63%
    08:00 -12°C° 0 mm 1 m/s 581 mmHg 64%
    09:00 -9°C° 0 mm 1 m/s 583 mmHg 66%
    10:00 -6°C° 0 mm 1 m/s 584 mmHg 67%
    11:00 -4°C° 0 mm 1 m/s 585 mmHg 69%
    12:00 -2°C° 0 mm 1 m/s 586 mmHg 71%
    13:00 -1°C° 0 mm 1 m/s 586 mmHg 73%
    14:00 -2°C° 0 mm 1 m/s 585 mmHg 74%
    15:00 -3°C° 0 mm 1 m/s 585 mmHg 75%
    16:00 -4°C° 0 mm 1 m/s 584 mmHg 76%
    17:00 -7°C° 0 mm 1 m/s 583 mmHg 76%
    18:00 -10°C° 0 mm 1 m/s 582 mmHg 75%
    19:00 -12°C° 0 mm 1 m/s 581 mmHg 75%
    20:00 -12°C° 0 mm 1 m/s 581 mmHg 74%
    21:00 -12°C° 0 mm 1 m/s 582 mmHg 73%
    22:00 -12°C° 0 mm 1 m/s 582 mmHg 72%
    23:00 -12°C° 0 mm 1 m/s 582 mmHg 72%

    27 Ianuarie, Vineri

    Timp Temperatura Precipitaţii Vânt Presiune Umiditate
    00:00 -12°C° 0 mm 1 m/s 582 mmHg 72%
    01:00 -12°C° 0 mm 1 m/s 582 mmHg 71%
    02:00 -12°C° 0 mm 1 m/s 581 mmHg 71%
    03:00 -12°C° 0 mm 1 m/s 581 mmHg 71%
    04:00 -12°C° 0 mm 1 m/s 581 mmHg 72%
    05:00 -13°C° 0 mm 1 m/s 581 mmHg 72%
    06:00 -13°C° 0 mm 1 m/s 581 mmHg 73%
    07:00 -13°C° 0 mm 1 m/s 581 mmHg 74%
    08:00 -10°C° 0 mm 1 m/s 583 mmHg 73%
    09:00 -8°C° 0 mm 1 m/s 585 mmHg 72%
    10:00 -4°C° 0 mm 1 m/s 586 mmHg 71%
    11:00 -3°C° 0 mm 1 m/s 587 mmHg 72%
    12:00 -2°C° 0 mm 1 m/s 587 mmHg 73%
    13:00 0°C° 0 mm 1 m/s 588 mmHg 74%
    14:00 -2°C° 0 mm 1 m/s 587 mmHg 75%
    15:00 -4°C° 0 mm 0 m/s 586 mmHg 76%
    16:00 -5°C° 0 mm 0 m/s 586 mmHg 77%
    17:00 -8°C° 0 mm 0 m/s 584 mmHg 79%
    18:00 -11°C° 0 mm 0 m/s 582 mmHg 80%
    19:00 -14°C° 0 mm 0 m/s 580 mmHg 82%
    20:00 -14°C° 0 mm 0 m/s 581 mmHg 81%
    21:00 -13°C° 0 mm 0 m/s 581 mmHg 80%
    22:00 -13°C° 0 mm 0 m/s 581 mmHg 79%
    23:00 -13°C° 0 mm 0 m/s 581 mmHg 78%
    Arată mai mult